G6FJI-13 Weather Reports


time (UTC)temp
C
wind
direction
speed
KPH
gust
KPH
rain 1hr
cm
rain 24hr
cm
rain mn
cm
humidity
%
barometer
mb
20260506212813 7 0.0 0.0 0.00 0.00 0.00 86 1018.6
20260506211741 7 0.0 1.6 0.00 0.00 0.00 85 1018.6
20260506210813 8 0.0 1.6 0.00 0.00 0.00 84 1018.1
20260506205742 8 162 1.6 1.6 0.00 0.00 0.00 83 1018.1
20260506204834 8 162 0.0 1.6 0.00 0.00 0.00 83 1018.3
20260506203742 8 0.0 1.6 0.00 0.00 0.00 81 1018.3
20260506202659 8 0.0 1.6 0.00 0.00 0.00 80 1018.0
20260506201643 9 0.0 0.0 0.00 0.00 0.00 77 1017.8
20260506200716 9 162 0.0 1.6 0.00 0.00 0.00 76 1017.7
20260506195644 10 162 0.0 1.6 0.00 0.00 0.00 74 1017.7
20260506194717 10 165 0.0 1.6 0.00 0.00 0.00 72 1017.5
20260506193725 10 165 1.6 1.6 0.00 0.00 0.00 70 1017.5
20260506192737 10 176 0.0 1.6 0.00 0.00 0.00 69 1017.4
20260506191646 11 174 1.6 3.2 0.00 0.00 0.00 68 1017.4
20260506190718 11 168 0.0 1.6 0.00 0.00 0.00 68 1017.3
20260506185647 11 148 1.6 1.6 0.00 0.00 0.00 68 1017.2
20260506184719 11 181 1.6 1.6 0.00 0.00 0.00 66 1017.2
20260506183647 11 187 1.6 3.2 0.00 0.00 0.00 64 1017.2
20260506182604 11 191 0.0 1.6 0.00 0.00 0.00 62 1017.0
20260506181520 11 191 1.6 3.2 0.00 0.00 0.00 60 1016.9
20260506180449 12 181 1.6 1.6 0.00 0.00 0.00 60 1017.0
20260506175421 12 184 0.0 1.6 0.00 0.00 0.00 60 1016.5
20260506174505 12 0.0 1.6 0.00 0.00 0.00 61 1016.7
20260506173422 12 0.0 1.6 0.00 0.00 0.00 61 1016.5
20260506172526 12 179 1.6 3.2 0.00 0.00 0.00 61 1016.6
20260506171422 12 173 1.6 1.6 0.00 0.00 0.00 63 1016.4
20260506170529 12 170 1.6 3.2 0.00 0.00 0.00 61 1016.6
20260506165424 12 170 0.0 1.6 0.00 0.00 0.00 61 1016.6
20260506164508 12 147 3.2 3.2 0.00 0.00 0.00 60 1016.7
20260506163424 12 197 1.6 3.2 0.00 0.00 0.00 59 1016.5
20260506162509 12 129 3.2 3.2 0.00 0.00 0.00 60 1016.5
20260506161430 12 207 1.6 1.6 0.00 0.00 0.00 60 1016.4
20260506160409 12 0.0 3.2 0.00 0.00 0.00 57 1016.3
20260506155326 13 0.0 8.0 0.00 0.00 0.00 59 1016.2
20260506154227 13 319 0.0 4.8 0.00 0.00 0.00 58 1016.5
20260506153313 13 114 1.6 3.2 0.00 0.00 0.00 57 1016.6
20260506152228 12 177 1.6 4.8 0.00 0.00 0.00 60 1016.5
20260506151332 12 135 1.6 3.2 0.00 0.00 0.00 58 1016.7
20260506150228 12 143 1.6 3.2 0.00 0.00 0.00 59 1016.6
20260506145313 13 98 4.8 4.8 0.00 0.00 0.00 57 1016.5
20260506144229 14 192 1.6 4.8 0.00 0.00 0.00 54 1016.5
20260506143333 13 168 1.6 3.2 0.00 0.00 0.00 56 1016.4
20260506142230 13 146 4.8 4.8 0.00 0.00 0.00 55 1016.6
20260506141314 14 111 0.0 4.8 0.00 0.00 0.00 52 1016.4
20260506140232 14 138 3.2 8.0 0.00 0.00 0.00 54 1016.5
20260506135335 15 212 1.6 4.8 0.00 0.00 0.00 51 1016.4
20260506134231 13 150 3.2 3.2 0.00 0.00 0.00 55 1016.7
20260506133316 13 195 4.8 8.0 0.00 0.00 0.00 55 1016.7
20260506132233 15 195 3.2 3.2 0.00 0.00 0.00 47 1016.8
20260506131317 12 149 1.6 4.8 0.00 0.00 0.00 57 1016.6
20260506130234 15 264 3.2 4.8 0.00 0.00 0.00 51 1016.6
20260506125318 13 145 3.2 4.8 0.00 0.00 0.00 53 1016.7
20260506124234 13 127 4.8 4.8 0.00 0.00 0.00 50 1016.7
20260506123318 13 147 3.2 4.8 0.00 0.00 0.00 50 1016.7
20260506122234 13 108 4.8 9.7 0.00 0.00 0.00 55 1016.6
20260506121319 13 199 3.2 4.8 0.00 0.00 0.00 54 1016.7
20260506120339 13 158 1.6 4.8 0.00 0.00 0.00 53 1016.7
20260506115236 13 179 3.2 8.0 0.00 0.00 0.00 53 1016.9
20260506114120 13 143 1.6 4.8 0.00 0.00 0.00 57 1016.7
20260506113217 13 134 3.2 4.8 0.00 0.00 0.00 56 1017.0
20260506112133 12 144 3.2 8.0 0.00 0.00 0.00 57 1017.1
20260506111217 12 132 1.6 3.2 0.00 0.00 0.00 56 1017.1
20260506110134 12 203 4.8 9.7 0.00 0.00 0.00 59 1017.2
20260506105225 11 135 3.2 4.8 0.00 0.00 0.00 62 1017.1
20260506104135 11 150 3.2 8.0 0.00 0.00 0.00 61 1017.3
20260506103219 11 139 1.6 4.8 0.00 0.00 0.00 64 1017.3
20260506102136 11 158 1.6 3.2 0.00 0.00 0.00 63 1017.2
20260506101104 10 161 1.6 3.2 0.00 0.00 0.00 66 1017.3
20260506100020 10 146 1.6 4.8 0.00 0.00 0.00 68 1017.1
20260506095125 10 162 1.6 3.2 0.00 0.00 0.00 70 1017.1
20260506094021 10 129 4.8 8.0 0.00 0.00 0.00 73 1017.3
20260506093126 10 128 3.2 3.2 0.00 0.00 0.00 74 1017.2
20260506092023 9 144 1.6 8.0 0.00 0.00 0.00 73 1017.3
20260506091107 9 166 1.6 4.8 0.00 0.00 0.00 74 1017.3
20260506090023 8 128 1.6 4.8 0.00 0.00 0.00 75 1017.2
20260506085128 8 181 1.6 4.8 0.00 0.00 0.00 76 1017.2
20260506084024 8 150 3.2 3.2 0.00 0.00 0.00 76 1017.2
20260506083108 8 139 1.6 3.2 0.00 0.00 0.00 78 1017.2
20260506082025 8 171 3.2 3.2 0.00 0.00 0.00 77 1017.1
20260506081109 8 169 4.8 4.8 0.00 0.00 0.00 78 1017.3
20260506073111 7 165 0.0 3.2 0.00 0.00 0.00 81 1017.2
20260506072037 7 170 1.6 1.6 0.00 0.00 0.00 81 1017.3
20260506071032 7 114 3.2 3.2 0.00 0.00 0.00 82 1016.9
20260506061929 7 143 1.6 3.2 0.00 0.00 0.00 82 1016.9
20260506061034 7 142 3.2 3.2 0.00 0.00 0.00 82 1016.9
20260506051016 7 121 1.6 3.2 0.00 0.00 0.00 83 1016.7
20260506045038 7 129 1.6 1.6 0.00 0.00 0.00 83 1016.5
20260506043934 7 146 1.6 1.6 0.00 0.00 0.00 84 1016.5
20260506043038 7 143 0.0 1.6 0.00 0.00 0.00 83 1016.5
20260506041935 7 142 1.6 3.2 0.00 0.00 0.00 82 1016.6
20260506041019 7 145 1.6 1.6 0.00 0.00 0.00 82 1016.6
20260506035936 7 143 1.6 3.2 0.00 0.00 0.00 82 1016.6
20260506035020 7 151 0.0 3.2 0.00 0.00 0.00 82 1016.8
20260506033936 7 150 1.6 3.2 0.00 0.00 0.00 81 1016.5
20260506033040 7 156 0.0 3.2 0.00 0.00 0.00 81 1016.6
20260506031937 7 160 1.6 1.6 0.00 0.00 0.00 81 1016.7
20260506031022 7 160 3.2 3.2 0.00 0.00 0.00 81 1016.6
20260506025958 8 168 1.6 3.2 0.00 0.00 0.00 80 1016.7
20260506025043 8 139 3.2 8.0 0.00 0.00 0.00 81 1016.6
20260506023939 8 169 1.6 1.6 0.00 0.00 0.00 81 1016.7
20260506022935 8 139 1.6 4.8 0.00 0.00 0.00 81 1016.7
20260506021946 8 165 0.0 1.6 0.00 0.00 0.00 84 1016.6
20260506020900 8 0.0 3.2 0.00 0.00 0.00 84 1016.6
20260506015925 8 0.0 1.6 0.00 0.00 0.00 83 1016.7
20260506014901 8 148 0.0 1.6 0.00 0.00 0.00 83 1016.5
20260506013824 8 139 1.6 3.2 0.00 0.00 0.00 82 1016.6
20260506012822 8 146 1.6 1.6 0.00 0.00 0.00 81 1016.6
20260506011738 8 180 3.2 3.2 0.00 0.00 0.00 81 1016.8
20260506010843 8 150 0.0 1.6 0.00 0.00 0.00 80 1017.1
20260506005739 8 166 0.0 4.8 0.00 0.00 0.00 79 1016.6
20260506004824 8 195 1.6 4.8 0.00 0.00 0.00 79 1016.8
20260506003740 8 142 3.2 4.8 0.00 0.00 0.00 79 1016.7
20260506002824 9 166 1.6 1.6 0.00 0.00 0.00 81 1016.7
20260506001740 9 186 1.6 3.2 0.00 0.00 0.00 81 1016.7
20260506000825 9 202 4.8 4.8 0.00 0.00 0.00 81 1016.6
20260505235741 10 175 3.2 4.8 0.00 0.00 0.00 82 1016.7
20260505234826 10 161 0.0 1.6 0.00 0.00 0.00 83 1016.7
20260505233742 10 186 1.6 3.2 0.00 0.00 0.00 82 1016.8
20260505232827 10 173 1.6 3.2 0.00 0.00 0.00 82 1016.7
20260505231743 10 166 1.6 3.2 0.00 0.00 0.00 81 1016.7
20260505230727 10 160 3.2 3.2 0.00 0.00 0.00 82 1016.8
20260505225643 10 174 1.6 1.6 0.00 0.00 0.00 82 1016.6
20260505224728 10 70 0.0 3.2 0.00 0.00 0.00 81 1016.4
20260505223645 10 187 1.6 3.2 0.00 0.00 0.00 80 1016.8
20260505222809 10 186 1.6 4.8 0.00 0.00 0.00 79 1016.9
20260505221645 10 51 1.6 3.2 0.00 0.00 0.00 79 1016.7
20260505220750 10 51 1.6 3.2 0.00 0.00 0.00 78 1016.7
20260505215707 11 50 3.2 8.0 0.00 0.00 0.00 77 1016.3
20260505214730 11 167 1.6 4.8 0.00 0.00 0.00 76 1016.7
20260505213647 11 145 3.2 4.8 0.00 0.00 0.00 76 1016.4